Findlay, OH

4:18 PM EST on November 14, 2019 (GMT -0500)
Findlay

Weather History for KFDY - July, 2019

Change the Weather History Date:

Tuesday, July 16, 2019

  Actual Average Record
Temperature  
Mean Temperature 80 °F -  
Max Temperature 89 °F 83 °F 100 °F (1988)
Min Temperature 73 °F 63 °F 52 °F (1967)
Cooling Degree Days 14    
Growing Degree Days 30 (Base 50)    
Moisture  
Dew Point 71 °F    
Average Humidity 82    
Maximum Humidity 91    
Minimum Humidity 59    
Precipitation  
Precipitation 0.83 in - - ()
Sea Level Pressure  
Sea Level Pressure 29.97 in    
Wind  
Wind Speed 9 mph (SSW)    
Max Wind Speed 23 mph    
Max Gust Speed 34 mph    
Visibility 8 miles    
Events Rain , Thunderstorm    
Averages and records for this station are not official NWS values.
T = Trace of Precipitation, MM = Missing Value Source: NWS Daily Summary

Daily Weather History Graph

Daily Weather History Graph

Search for Another Location

Airport or City:

Astronomy

Jul. 16, 2019 Rise Set
Actual Time 6:16 AM EDT 9:04 PM EDT
Civil Twilight 5:43 AM EDT 9:37 PM EDT
Nautical Twilight 5:02 AM EDT 10:18 PM EDT
Astronomical Twilight 4:15 AM EDT 11:04 PM EDT
Moon 9:10 PM EDT (7/16) 5:53 AM EDT (7/16)
Length of Visible Light 15h 53m
Length of Day
14h 48m
Full, 100% of the Moon is Illuminated
Jul 16
Full
Jul 16
Full
Jul 24
Last Quarter
Jul 31
New
Aug 7
First Quarter

Hourly Weather History & Observations

Time (EDT) Temp. Heat Index Dew Point Humidity Pressure Visibility Wind Dir Wind Speed Gust Speed Precip Events Conditions
12:53 AM 75.9 °F - 72.0 °F 87% 30.03 in 10.0 mi South 5.8 mph - N/A   Clear
1:53 AM 75.9 °F - 72.0 °F 87% 30.01 in 10.0 mi Calm Calm - N/A   Clear
2:53 AM 75.9 °F - 71.1 °F 85% 30.01 in 10.0 mi SW 4.6 mph - N/A   Partly Cloudy
3:53 AM 75.9 °F - 71.1 °F 85% 29.99 in 10.0 mi South 3.5 mph - N/A   Clear
4:53 AM 75.9 °F - 70.0 °F 82% 30.00 in 10.0 mi SSW 6.9 mph - 0.00 in   Mostly Cloudy
5:53 AM 73.9 °F - 69.1 °F 85% 30.01 in 10.0 mi SSW 6.9 mph - N/A   Scattered Clouds
6:53 AM 75.0 °F - 68.0 °F 79% 30.01 in 10.0 mi SSW 9.2 mph - N/A   Clear
7:53 AM 75.9 °F - 69.1 °F 79% 30.01 in 10.0 mi South 10.4 mph - N/A   Partly Cloudy
8:53 AM 77.0 °F - 68.0 °F 74% 30.01 in 10.0 mi SSW 15.0 mph - N/A   Overcast
9:53 AM 79.0 °F - 68.0 °F 69% 30.00 in 10.0 mi South 10.4 mph - N/A   Overcast
10:53 AM 80.1 °F 83.2 °F 70.0 °F 71% 30.01 in 10.0 mi SSW 13.8 mph - 0.00 in Rain Light Rain
11:53 AM 82.9 °F 87.0 °F 70.0 °F 65% 29.99 in 10.0 mi South 15.0 mph - 0.00 in   Mostly Cloudy
12:53 PM 84.9 °F 90.1 °F 71.1 °F 63% 29.99 in 10.0 mi South 17.3 mph - N/A   Partly Cloudy
1:53 PM 84.9 °F 90.1 °F 71.1 °F 63% 29.96 in 10.0 mi SSW 10.4 mph - N/A   Mostly Cloudy
2:53 PM 86.0 °F 91.5 °F 71.1 °F 61% 29.95 in 10.0 mi SW 18.4 mph - 0.00 in Rain Light Rain
3:53 PM 86.0 °F 92.2 °F 72.0 °F 63% 29.91 in 10.0 mi South 5.8 mph - 0.00 in   Partly Cloudy
4:21 PM 86.0 °F 90.7 °F 70.0 °F 59% 29.95 in 10.0 mi WSW 20.7 mph 32.2 mph N/A Thunderstorm Mostly Cloudy
4:30 PM 78.1 °F - 70.0 °F 76% 29.96 in 4.0 mi West 20.7 mph 32.2 mph 0.04 in Rain , Thunderstorm Light Thunderstorms and Rain
4:37 PM 73.9 °F - 70.0 °F 87% 29.96 in 1.8 mi West 23.0 mph 34.5 mph 0.14 in Rain , Thunderstorm Heavy Thunderstorms and Rain
4:48 PM 73.4 °F - 69.8 °F 88% 29.95 in 3.0 mi WNW 10.4 mph - 0.20 in Rain , Thunderstorm Light Thunderstorms and Rain
4:53 PM 73.9 °F - 71.1 °F 91% 29.93 in 10.0 mi WNW 6.9 mph - 0.21 in Rain , Thunderstorm Light Thunderstorms and Rain
5:06 PM 77.0 °F - 71.1 °F 82% 29.94 in 8.0 mi SW 6.9 mph - 0.00 in Rain , Thunderstorm Light Rain
5:12 PM 78.1 °F - 72.0 °F 81% 29.95 in 2.5 mi SSW 10.4 mph - 0.07 in   Haze
5:28 PM 77.0 °F - 73.0 °F 88% 29.94 in 6.0 mi South 11.5 mph - 0.09 in Rain , Thunderstorm Light Rain
5:53 PM 77.0 °F - 73.0 °F 88% 29.93 in 10.0 mi South 12.7 mph - 0.09 in Rain , Thunderstorm Light Rain
6:03 PM 77.0 °F - 73.0 °F 88% 29.96 in 10.0 mi SSW 10.4 mph - 0.00 in Rain Light Rain
6:14 PM 77.0 °F - 73.0 °F 88% 29.97 in 1.8 mi SSW 12.7 mph 24.2 mph 0.14 in Rain Heavy Rain
6:29 PM 75.0 °F - 71.1 °F 87% 29.95 in 3.0 mi SSW 4.6 mph - 0.31 in Rain Light Rain
6:36 PM 75.0 °F - 72.0 °F 90% 29.95 in 6.0 mi South 4.6 mph - 0.32 in Rain Light Rain
6:53 PM 75.9 °F - 71.1 °F 85% 29.92 in 10.0 mi SSE 5.8 mph - 0.33 in Rain Light Rain
7:15 PM 75.9 °F - 73.0 °F 91% 29.97 in 10.0 mi South 10.4 mph - 0.00 in Thunderstorm Mostly Cloudy
7:24 PM 73.9 °F - 70.0 °F 87% 29.99 in 2.5 mi SW 18.4 mph 29.9 mph 0.07 in Rain , Thunderstorm Heavy Thunderstorms and Rain
7:30 PM 73.0 °F - 69.1 °F 87% 29.98 in 1.5 mi SW 15.0 mph 29.9 mph 0.13 in Rain , Thunderstorm Heavy Thunderstorms and Rain
7:34 PM 73.0 °F - 69.1 °F 87% 29.97 in 2.0 mi SW 12.7 mph 26.5 mph 0.16 in Rain Heavy Rain
7:45 PM 73.0 °F - 69.1 °F 87% 29.96 in 5.0 mi SW 9.2 mph - 0.18 in Rain Light Rain
7:53 PM 73.0 °F - 70.0 °F 90% 29.93 in 8.0 mi SSW 9.2 mph - 0.19 in Rain Light Rain
8:53 PM 73.0 °F - 70.0 °F 90% 29.90 in 10.0 mi South 8.1 mph - 0.01 in   Clear
9:53 PM 73.9 °F - 71.1 °F 91% 29.91 in 10.0 mi SSW 8.1 mph - N/A   Partly Cloudy
10:53 PM 73.9 °F - 71.1 °F 91% 29.93 in 10.0 mi SSW 3.5 mph - N/A   Mostly Cloudy
11:53 PM 75.0 °F - 71.1 °F 87% 29.92 in 10.0 mi SSE 5.8 mph - N/A   Mostly Cloudy